[Iaude] MPEC D56: 2024 AW15 [a=39.57,e=0.30,i=4.3,H=7.3]

mpec at cfa.harvard.edu mpec at cfa.harvard.edu
Sun Feb 18 18:16:27 EST 2024


M.P.E.C. 2024-D56                             Issued 2024 February 18, 23:14 UT

     The Minor Planet Electronic Circulars contain information on unusual
         minor planets, routine data on comets and natural satellites,
         and occasional editorial announcements.  They are published
    on behalf of Division F of the International Astronomical Union by the
          Minor Planet Center, Smithsonian Astrophysical Observatory,
                          Cambridge, MA 02138, U.S.A.
			  
             Prepared using the Tamkin Foundation Computer Network

                              MPC at CFA.HARVARD.EDU
            URL https://www.minorplanetcenter.net/    ISSN 1523-6714

                                   2024 AW15                                    


Observations:
     K24A15W  C2020 12 24.53709807 49 39.163+19 08 59.63         22.60GVED056F51
     K24A15W  C2020 12 24.55066707 49 39.074+19 08 59.86         22.65GVED056F51
     K24A15W  C2020 12 24.56420807 49 38.984+19 09 00.24         22.72GVED056F51
     K24A15W  C2020 12 24.57781607 49 38.904+19 09 00.29         22.18GVED056F51
     K24A15W  C2021 02 09.25617807 44 40.413+19 23 05.16         22.67GVED056F51
     K24A15W  C2021 02 09.26894807 44 40.347+19 23 05.85         22.14GVED056F51
     K24A15W  C2021 02 13.25562307 44 17.714+19 24 15.87         21.83GVED056F51
     K24A15W  C2021 02 13.26924107 44 17.666+19 24 16.06         22.25GVED056F51
     K24A15W  C2021 02 13.28280207 44 17.567+19 24 16.29         22.28GVED056F51
     K24A15W  C2021 02 13.29645007 44 17.505+19 24 16.44         22.63GVED056F51
     K24A15W  C2023 11 18.54809808 19 04.582+18 09 30.27         21.45GVED056F52
     K24A15W  C2023 11 18.56031908 19 04.564+18 09 30.36         21.42GVED056F52
     K24A15W  C2023 11 18.57261508 19 04.556+18 09 30.46         21.61GVED056F52
     K24A15W  C2023 11 18.58501908 19 04.518+18 09 30.60         21.49GVED056F52
     K24A15W  C2023 12 07.47556608 18 11.591+18 12 09.46         22.00GVED056F52
     K24A15W  C2023 12 07.48715608 18 11.541+18 12 09.56         22.37GVED056F52
     K24A15W  C2023 12 07.49881508 18 11.486+18 12 09.66         22.24GVED056F52
     K24A15W  C2023 12 07.51041508 18 11.450+18 12 09.81         22.59GVED056F52
     K24A15W* C2024 01 10.73362 08 15 11.55 +18 22 00.9          22.4 wVED056O18
     K24A15W  C2024 01 10.74230 08 15 11.49 +18 22 01.1          22.1 wVED056O18
     K24A15W  C2024 01 10.75103 08 15 11.43 +18 22 01.1          22.6 wVED056O18
     K24A15W KC2024 01 14.95653 08 14 44.943+18 23 30.89         22.3 GXED056088
     K24A15W KC2024 01 14.97454 08 14 44.844+18 23 31.54         21.8 GXED056088
     K24A15W KC2024 01 14.99149 08 14 44.761+18 23 31.73         22.0 GXED056088
     K24A15W  C2024 01 31.47338908 12 59.665+18 29 33.34         21.82GVED056F52
     K24A15W  C2024 01 31.48577808 12 59.587+18 29 33.95         22.16GVED056F52
     K24A15W  C2024 01 31.49824308 12 59.519+18 29 34.12         22.15GVED056F52
     K24A15W  C2024 01 31.51059608 12 59.428+18 29 34.09         21.80GVED056F52
     K24A15W  C2024 02 07.31341608 12 17.293+18 32 02.44         22.71GVED056F52
     K24A15W  C2024 02 07.32633608 12 17.184+18 32 02.71         22.96GVED056F52
     K24A15W  C2024 02 07.43982308 12 16.523+18 32 05.12         22.33GVED056F52
     K24A15W  C2024 02 07.44064208 12 16.517+18 32 05.49         23.22GVED056F52
     K24A15W KC2024 02 17.16351508 11 19.860+18 35 28.10         22.22GVED056V06
     K24A15W KC2024 02 17.19360508 11 19.720+18 35 28.70         21.97GVED056V06
     K24A15W KC2024 02 17.38928208 11 18.590+18 35 32.70         23.02GVED056V06
     K24A15W KC2024 02 17.41893308 11 18.430+18 35 33.30         22.99GVED056V06

Observer details:
088 Kottomia.  Observers A. Taky, M. Aboueisha.  Measurer L. Elenin.  1.88-m
    f/4.9 reflector + CCD.
F51 Pan-STARRS 1, Haleakala.  Observers J. Herman, T. Lowe, P. Minguez, A.
    Schultz, I. Smith.  Measurers K. Chambers, T. de Boer, J. Fairlamb, H.
    Gao, M. Huber, C.-C. Lin, E. Magnier, Y. Ramanjooloo, R. Wainscoat, R.
    Weryk.  1.8-m Ritchey-Chretien + CCD.
F52 Pan-STARRS 2, Haleakala.  Observers J. Herman, T. Lowe, P. Minguez, A.
    Schultz, I. Smith.  Measurers K. Chambers, T. de Boer, J. Fairlamb, H.
    Gao, M. Huber, C.-C. Lin, E. Magnier, Y. Ramanjooloo, R. Wainscoat, R.
    Weryk.  1.8-m Ritchey-Chretien + CCD.
O18 WFST, Lenghu.  Observers Z. Q. Li, S. X. Li, Q. Y. Hai.  Measurers B. Li,
    H. B. Zhao, Z. J. Xu, G. T. Zhaori.  2.5-m f/2.48 reflector + CCD.
V06 Catalina Sky Survey-Kuiper.  Observer J. B. Fazekas.  Measurers T. Beuden,
    V. F. Carvajal, D. Fay, J. B. Fazekas, D. C. Fuls, A. R. Gibbs, A. D.
    Grauer, H. Groeller, J. K. Hogan, R. A. Kowalski, S. M. Larson, G. J.
    Leonard, D. Rankin, R. L. Seaman, F. C. Shelly, K. W. Wierzchos.  1.55-m
    reflector + 1K CCD.

Orbital elements:
2024 AW15                                                                       
Epoch 2024 Mar. 31.0 TT = JDT 2460400.5                 Veres                   
M  39.36330              (2000.0)            P               Q                  
n   0.00396027     Peri.  273.67536     +0.58913721     -0.80661028             
a  39.5657869      Node   140.10184     +0.76785411     +0.54038548             
e   0.2968931      Incl.    4.28530     +0.25162952     +0.23950656             
P 249              H    7.39          G   0.15           U   4                  
Residuals in seconds of arc
201224 F51  0.1+  0.1-    231118 F52  0.2+  0.1+    240131 F52  0.0   0.1-
201224 F51  0.0   0.1-    231118 F52  0.0   0.2+    240131 F52  0.1+  0.2+
201224 F51  0.1-  0.1+    231207 F52  0.1+  0.0     240131 F52  0.2+  0.1+
201224 F51  0.0   0.0     231207 F52  0.0   0.0     240131 F52  0.1+  0.2-
210209 F51  0.0   0.5-    231207 F52  0.1-  0.1-    240207 F52  0.1-  0.0
210209 F51  0.1+  0.0     231207 F52  0.0   0.1-    240207 F52  0.5-  0.0
210213 F51  0.2-  0.1+    240110 O18  0.1+  0.0     240207 F52  0.0   0.0
210213 F51  0.2+  0.1+    240110 O18  0.0   0.0     240207 F52  0.0   0.3+
210213 F51  0.1-  0.1+    240110 O18  0.0   0.2-    240217 V06  0.0   0.2-
210213 F51  0.1+  0.0     240114 088  0.3-  0.1-    240217 V06  0.4+  0.2-
231118 F52  0.1-  0.0     240114 088  0.0   0.2+    240217 V06  0.0   0.1-
231118 F52  0.0   0.0     240114 088  0.3+  0.0     240217 V06  0.1+  0.1-

Ephemeris:
2024 AW15                a,e,i = 39.57, 0.30, 4                  q = 27.8190
Date    TT    R. A. (2000) Decl.     Delta      r    Elong.  Phase     V
2024 01 19    08 14 19.2 +18 24 59  31.4476 32.4293   176.1     0.1    22.5
...
2024 02 03    08 12 43.8 +18 30 29  31.4768 32.4411   167.9     0.4    22.5
...
2024 02 11    08 11 55.2 +18 33 21  31.5205 32.4474   159.6     0.6    22.6
...
2024 02 17    08 11 20.8 +18 35 25  31.5655 32.4521   153.4     0.8    22.6
2024 02 18    08 11 15.2 +18 35 45  31.5740 32.4529   152.4     0.8    22.6
2024 02 19    08 11 09.8 +18 36 05  31.5827 32.4537   151.4     0.8    22.6
...
2024 02 25    08 10 38.5 +18 38 01  31.6408 32.4584   145.2     1.0    22.6
...
2024 03 04    08 10 01.4 +18 40 22  31.7321 32.4647   137.0     1.2    22.6
...
2024 03 19    08 09 08.9 +18 43 58  31.9403 32.4765   121.8     1.5    22.7

M. P. C. Staff               (C) Copyright 2024 MPC           M.P.E.C. 2024-D56





More information about the Iaude mailing list